Flag for U.S.A. Weather past 2 weeks in Lowell, Massachusetts, U.S.A.

Now
32 °F

Overcast.


Feels Like: 27 °F
Forecast: 27 / 34 °F
Wind: 5 mph from Northeast

Location: Hanscom Field

Current Time: Dec 21, 2014 at 5:46:54 PM

Latest Report: Dec 21, 2014 at 4:56 PM


Visibility: 10 mi

Pressure: 30.36 "Hg

Humidity: 79%

Dew point: 26 °F

Location of LowellLocation

Historic Weather in Lowell — Graph

°F

Lowell temperature yesterday

Maximum temperature yesterday: 33 °F (at 12:56 PM)
Minimum temperature yesterday: 21 °F (at 6:56 AM)
Average temperature yesterday: 29 °F

Past Weeks' High & Low Weather Summary

 TemperatureHumidityPressure
High48 °F (Dec 17, 2:56 PM)100% (Dec 6, 9:56 PM)30.82 "Hg (Dec 6, 9:56 PM)
Low15 °F (Dec 8, 2:56 AM)31% (Dec 7, 2:56 PM)29.43 "Hg (Dec 10, 9:03 PM)
Average33 °F80%30.02 "Hg
* Reported Dec 6 3:56 PM — Dec 21 3:56 PM, Lowell, Weather by CustomWeather, © 2014

Note: Actual official high and low records may vary slightly from our data, if they occured in-between our weather recording intervals... More about our weather records

Advertising

Lowell weather history for previous 24 hours

 ConditionsComfort  
Time TempWeatherWind HumidityBarometerVisibility
3:56 PM
Dec 21
33 °FLight snow. Overcast.6 mph75%30.35 "Hg6 mi
2:56 PM33 °FLight snow. Overcast.6 mph75%30.34 "Hg10 mi
1:56 PM34 °FLight snow. Overcast.8 mph70%30.34 "Hg6 mi
12:56 PM33 °FOvercast.6 mph70%30.34 "Hg10 mi
11:56 AM32 °FOvercast.5 mph69%30.34 "Hg10 mi
10:56 AM31 °FOvercast.8 mph73%30.37 "Hg10 mi
9:56 AM30 °FCloudy.6 mph75%30.37 "Hg10 mi
8:56 AM29 °FMostly cloudy.10 mph79%30.37 "Hg10 mi
7:56 AM28 °FOvercast.7 mph81%30.36 "Hg10 mi
6:56 AM28 °FOvercast.6 mph85%30.36 "Hg10 mi
5:56 AM29 °FOvercast.6 mph85%30.34 "Hg10 mi
4:56 AM29 °FOvercast.9 mph85%30.33 "Hg10 mi
3:56 AM30 °FOvercast.8 mph85%30.33 "Hg10 mi
2:56 AM31 °FOvercast.7 mph79%30.33 "Hg10 mi
1:56 AM31 °FMostly cloudy.6 mph79%30.32 "Hg10 mi
12:56 AM31 °FMostly cloudy.5 mph79%30.32 "Hg10 mi
11:56 PM
Dec 20
31 °FMostly cloudy.3 mph79%30.32 "Hg10 mi
10:56 PM32 °FOvercast.No wind75%30.34 "Hg10 mi
9:56 PM31 °FOvercast.6 mph79%30.33 "Hg10 mi
8:56 PM31 °FOvercast.7 mph79%30.34 "Hg10 mi
7:56 PM32 °FMostly cloudy.No wind75%30.35 "Hg10 mi
6:56 PM32 °FMostly cloudy.5 mph73%30.34 "Hg10 mi
5:56 PM32 °FOvercast.6 mph69%30.33 "Hg10 mi
Weather by CustomWeather, © 2014

See weather overviewHow to use our weather pages